Flight Track Log - Related Links

Times and Time Zones

All times are in EDT time to prevent confusion due to time zone crossing. See the SWA378 flight status page for this flight to view local times or setup timezone preferences in your user account.

Time Position Orientation Groundspeed Altitude Reporting Facility
EDT Latitude Longitude Course Direction KTS MPH feet Rate Location/Type
Wed 11:13:05 AM 37.4000 -121.9667 133° Southeast 193 222 1,700  Level Northern Cal TRACON
Wed 11:14:05 AM 37.4500 -121.9500 15° North 259 298 4,300 2,176 Climbing Northern Cal TRACON
Wed 11:16:07 AM 37.3647 -121.8294 132° Southeast 244 281 8,300 2,120 Climbing Oakland Center
Wed 11:17:09 AM 37.3081 -121.7678 139° Southeast 261 300 10,800 2,537 Climbing Oakland Center
Wed 11:18:00 AM 36.9745 -121.3908 133° Southeast  Level Estimated
Wed 11:18:10 AM 37.2397 -121.6872 137° Southeast 317 365 13,500  Level Oakland Center
Wed 11:19:12 AM 37.1669 -121.6069 139° Southeast 343 395 16,500 3,171 Climbing Oakland Center
Wed 11:20:13 AM 37.0778 -121.5044 137° Southeast 358 412 20,000 2,852 Climbing Oakland Center
Wed 11:21:14 AM 37.0003 -121.4194 139° Southeast 369 425 22,300 2,244 Climbing Oakland Center
Wed 11:22:16 AM 36.9183 -121.3331 140° Southeast 382 440 24,600 2,000 Climbing Oakland Center
Wed 11:23:17 AM 36.8367 -121.2414 138° Southeast 390 449 26,400 1,721 Climbing Oakland Center
Wed 11:24:18 AM 36.7528 -121.1492 139° Southeast 403 464 28,100 1,707 Climbing Oakland Center
Wed 11:25:20 AM 36.6644 -121.0539 139° Southeast 414 476 29,900 1,854 Climbing Oakland Center
Wed 11:26:21 AM 36.5753 -120.9600 140° Southeast 419 482 31,900 2,049 Climbing Oakland Center
Wed 11:27:23 AM 36.4978 -120.8581 133° Southeast 403 464 34,100 1,512 Climbing Oakland Center
Wed 11:28:24 AM 36.4292 -120.7492 128° Southeast 399 459 35,000 1,415 Climbing Oakland Center
Wed 11:29:26 AM 36.3428 -120.6150 129° Southeast 407 468 37,000 976 Climbing Oakland Center
Wed 11:30:27 AM 36.2714 -120.5050 129° Southeast 409 471 37,000  Level Oakland Center
Wed 11:31:28 AM 36.2000 -120.3958 129° Southeast 408 470 37,000  Level Oakland Center
Wed 11:32:30 AM 36.1286 -120.2856 129° Southeast 409 471 37,000  Level Oakland Center
Wed 11:33:31 AM 36.0586 -120.1775 129° Southeast 405 466 37,000  Level Oakland Center
Wed 11:34:33 AM 35.9864 -120.0639 128° Southeast 414 476 37,000  Level Oakland Center
Wed 11:35:34 AM 35.9142 -119.9558 130° Southeast 409 471 37,000  Level Oakland Center
Wed 11:36:36 AM 35.8425 -119.8469 129° Southeast 408 470 37,000  Level Oakland Center
Wed 11:37:37 AM 35.7714 -119.7394 129° Southeast 405 466 37,000  Level Oakland Center
Wed 11:38:39 AM 35.6989 -119.6300 129° Southeast 409 471 37,000  Level Oakland Center
Wed 11:39:40 AM 35.6117 -119.5017 130° Southeast 407 468 37,000  Level Oakland Center
Wed 11:40:16 AM 35.5700 -119.4378 129° Southeast 408 470 37,000  Level Los Angeles Center
Wed 11:41:18 AM 35.4986 -119.3314 129° Southeast 405 466 37,000  Level Los Angeles Center
Wed 11:42:20 AM 35.4264 -119.2242 130° Southeast 405 466 37,000  Level Los Angeles Center
Wed 11:43:23 AM 35.3553 -119.1175 129° Southeast 405 466 37,000  Level Los Angeles Center
Wed 11:44:24 AM 35.2975 -119.0331 130° Southeast 405 466 37,000 -290 Level Los Angeles Center
Wed 11:45:27 AM 35.2097 -118.9047 130° Southeast 408 470 36,400 -864 Descending Los Angeles Center
Wed 11:46:29 AM 35.1236 -118.7786 130° Southeast 404 465 35,200 -1,065 Descending Los Angeles Center
Wed 11:47:31 AM 35.0544 -118.6761 129° Southeast 393 452 34,200 -1,403 Descending Los Angeles Center
Wed 11:48:33 AM 34.9811 -118.5706 130° Southeast 407 468 32,300 -2,081 Descending Los Angeles Center
Wed 11:49:35 AM 34.9136 -118.4722 130° Southeast 414 476 29,900 -1,984 Descending Los Angeles Center
Wed 11:50:37 AM 34.8289 -118.3494 130° Southeast 401 461 28,200 -1,258 Descending Los Angeles Center
Wed 11:51:39 AM 34.7556 -118.2453 131° Southeast 406 467 27,300 -1,694 Descending Los Angeles Center
Wed 11:52:41 AM 34.6869 -118.1456 130° Southeast 391 450 24,700 -2,064 Descending Los Angeles Center
Wed 11:53:44 AM 34.6225 -118.0467 128° Southeast 376 433 23,000 -1,200 Descending Los Angeles Center
Wed 11:54:46 AM 34.5772 -117.9458 119° Southeast 346 398 22,200 -1,742 Descending Los Angeles Center
Wed 11:55:48 AM 34.5161 -117.8150 120° Southeast 375 432 19,400 -2,419 Descending Los Angeles Center
Wed 11:56:50 AM 34.4678 -117.7097 119° Southeast 363 418 17,200 -2,081 Descending Los Angeles Center
Wed 11:57:52 AM 34.4219 -117.6092 119° Southeast 346 398 15,100 -1,694 Descending Los Angeles Center
Wed 11:58:54 AM 34.3719 -117.4978 119° Southeast 330 380 13,700 -1,488 Descending Los Angeles Center
Wed 11:59:57 AM 34.3219 -117.4144 126° Southeast 318 366 12,000 -1,971 Descending Los Angeles Center
Wed 12:01:11 PM 34.2381 -117.4244 186° South 294 338 9,200 -2,891 Descending Los Angeles Center
Wed 12:02:14 PM 34.1494 -117.4511 194° South 265 305 5,400 -3,464 Descending Los Angeles Center
Wed 12:02:48 PM 34.1000 -117.4667 195° South 250 288 3,600 -1,787 Descending Southern California TRACON
Wed 12:03:48 PM 34.0500 -117.5000 209° Southwest 200 230 2,600 -1,050 Descending Southern California TRACON
Wed 12:04:48 PM 34.0500 -117.5500 270° West 131 151 1,500 -619 Descending Southern California TRACON
Wed 12:06:23 PM 34.0606 -117.6153 281° West 152 175 1,000 -316 Descending Los Angeles Center
Wed 12:08:00 PM 34.0500 -117.6000 North  Level FlightAware Approximate

Login

Don't have an account? Register now (free) for customized features, flight alerts, and more!